[[{"header":{"parameterUnit":"m.s-1","parameterCategory":1,"la1":30.2991,"la2":30.254,"lo1":-89.0895,"lo2":-89.0444,"dy":0.0017,"dx":0.0017,"nx":28,"ny":28,"refTime":"2025-07-06T21:00:00:Z","depth":0,"parameterNumber":2,"parameterNumberName":"U-component_of_WINDS"},"data":[0,0,0,0,0,0,0,0,0,0,0,0,0,0,0,0,0,0,0,0,0,0,0,0,0,0,0,0,0,0,0,0,0,0,0,0,0,0,0,0,0,0,0,0,0,0,0,0,0,0,0,0,0,0,0,0,0,0,2.8001,2.8002,0,2.812,2.8121,2.8122,2.812,2.8118,2.8117,2.8115,2.8242,2.8246,2.8251,0,0,0,0,0,0,0,0,0,0,0,0,0,2.7776,2.778,2.8001,2.8002,2.8004,2.812,2.8121,2.8123,2.812,2.8118,2.8116,2.8115,2.824,2.8246,2.8252,0,0,0,0,0,0,0,0,0,0,0,0,0,2.7882,2.7781,2.8,2.8016,2.8019,2.8119,2.8121,2.8123,2.8121,2.8118,2.8116,2.8114,2.8238,2.8245,2.8252,2.8346,0,0,2.8275,2.8278,0,0,0,0,0,0,0,0,2.7876,2.789,2.8012,2.8015,2.8018,2.8102,2.8088,2.8198,2.8121,2.8082,2.8115,2.8112,2.8198,2.8208,2.8236,2.8352,2.8358,2.8275,2.828,2.8283,2.8285,0,0,0,0,0,0,0,2.7869,2.7885,2.8048,2.8014,2.8018,2.8019,2.8031,2.8109,2.8152,2.8085,2.8085,2.8099,2.8199,2.8229,2.8239,2.8359,2.8275,2.8282,2.8286,2.8289,2.8561,2.8564,0,0,0,0,0,0,2.7857,2.7879,2.8044,2.8051,2.794,2.8025,2.8039,2.8078,2.8151,2.816,2.8101,2.8099,2.8218,2.823,2.8243,2.8359,2.8283,2.829,2.8294,2.8558,2.8562,2.8565,0,0,0,0,0,0,2.7853,2.7872,2.8039,2.7965,2.7987,2.8031,2.8075,2.8082,2.8112,2.8163,2.8171,2.8124,2.8216,2.8233,2.8321,2.8364,2.8293,2.83,2.8555,2.8559,2.8563,2.8591,0,0,0,0,0,0,2.7846,2.787,2.7905,2.7966,2.7991,2.8113,2.8078,2.8086,2.8124,2.8122,2.8187,2.8195,2.8216,2.831,2.8328,2.8372,2.8305,2.8551,2.8557,2.8562,2.8587,2.8596,2.8604,0,0,0,0,0,2.7838,2.7909,2.7907,2.7927,2.8035,2.8116,2.813,2.8151,2.8127,2.8164,2.8197,2.8193,2.8356,2.8319,2.8339,2.8387,2.8549,2.8555,2.8561,2.8583,2.8594,2.8604,0,0,0,0,0,0,2.7853,2.7917,2.7916,2.8008,2.8056,2.8115,2.8162,2.8162,2.8219,2.8215,2.8239,2.8254,2.8342,2.8373,2.8331,2.8482,2.8449,2.846,2.8459,2.847,2.8478,2.847,2.8312,0,0,0,0,0,2.7867,2.7926,2.7979,2.8056,2.808,2.8117,2.8153,2.8164,2.8216,2.8237,2.8277,2.8328,2.8391,2.8432,2.8493,2.8591,2.8606,2.8634,2.8642,2.8649,2.8658,2.8715,2.8728,2.8586,2.8585,2.8585,0,0,2.7897,2.7939,2.7975,2.806,2.8099,2.8161,2.8134,2.82,2.8247,2.8247,2.8333,2.8364,2.8423,2.8517,2.856,2.8546,2.8701,2.8657,2.8662,2.8668,2.8723,2.8736,2.8748,2.859,2.8589,2.8588,0,0,2.7983,2.802,2.8088,2.8128,2.8186,2.8211,2.8227,2.8286,2.8307,2.8392,2.8394,2.8451,2.8558,2.8601,2.8637,2.874,2.8739,2.8759,2.8804,2.8859,2.887,2.888,2.8919,2.8932,2.8768,2.8768,2.8768,0,2.8013,2.8105,2.8124,2.8191,2.8229,2.8231,2.8302,2.8339,2.8416,2.8443,2.8425,2.856,2.86,2.8705,2.873,2.8758,2.878,2.8752,2.8867,2.8877,2.8887,2.8924,2.8938,2.877,2.877,2.877,2.877,0,2.814,2.8204,2.8252,2.8325,2.8368,2.8437,2.8468,2.851,2.8519,2.8545,2.8634,2.8682,2.8753,2.8778,2.8787,2.8885,2.8874,2.8861,2.8829,2.8902,2.8937,2.8952,2.8774,2.8773,2.8772,2.8772,0,0,2.8239,2.8321,2.8339,2.8372,2.8438,2.8488,2.8558,2.8626,2.8663,2.8715,2.8776,2.8867,2.8855,2.8896,2.891,2.8958,2.9039,2.8939,2.8941,2.8957,2.9151,2.9161,2.9177,2.9038,2.9041,2.9043,2.9147,0,2.8333,2.8455,2.8474,2.8582,2.8643,2.8646,2.8707,2.8754,2.8781,2.8838,2.8868,2.8933,2.8912,2.8937,2.8984,2.9019,2.9078,2.9011,2.9096,2.9099,2.9082,2.9196,2.9207,2.9302,2.9161,2.9163,2.9165,0,2.8459,2.8514,2.8627,2.8686,2.8712,2.8766,2.8831,2.8884,2.8939,2.8956,2.9001,2.901,2.9084,2.9048,2.9152,2.9106,2.9142,2.9164,2.9169,2.9178,2.9137,2.921,2.9333,2.9348,2.9186,2.9184,2.9183,0,2.8522,2.8625,2.8706,2.8734,2.8804,2.8842,2.8873,2.8926,2.8966,2.9023,2.905,2.9115,2.9152,2.9203,2.923,2.9201,2.9333,2.9298,2.9351,2.935,2.9379,2.9377,2.9511,2.94,2.94,2.94,2.9399,0,2.8626,2.8696,2.8735,2.8786,2.8865,2.8887,2.8965,2.8996,2.9042,2.91,2.9107,2.9161,2.9193,2.9252,2.9274,2.9358,2.9374,2.9391,2.9396,2.9391,2.9389,2.9416,2.941,2.9403,2.9403,2.9402,2.9401,0,2.871,2.8739,2.8828,2.8887,2.8903,2.8959,2.901,2.906,2.9086,2.9159,2.9178,2.922,2.9291,2.9322,2.941,2.9425,2.9521,2.952,2.9502,2.9504,2.9555,2.955,2.9712,2.9735,2.9607,2.9608,2.9609,0,2.8775,2.8828,2.8892,2.8931,2.8962,2.9024,2.9065,2.909,2.9133,2.92,2.9242,2.9313,2.937,2.9483,2.9523,2.9591,2.9593,2.9645,2.9603,2.9597,2.9596,2.9593,2.9599,2.9653,2.9654,2.9655,2.9656,0,2.8887,2.8899,2.8957,2.9021,2.9069,2.9121,2.9171,2.9203,2.9236,2.9284,2.9355,2.94,2.9489,2.956,2.963,2.9664,2.9667,2.9669,2.9685,2.9681,2.9668,2.9677,2.9524,2.9665,2.9664,2.9664,2.9663,2.9663,2.8965,2.9013,2.9066,2.9131,2.9171,2.9219,2.9269,2.9301,2.9361,2.9434,2.9446,2.9523,2.9578,2.9672,2.9708,2.977,2.9758,2.978,2.9787,2.9792,2.9796,2.9657,2.9783,2.9783,2.9782,2.9782,2.9782,0,2.908,2.9113,2.9173,2.9243,2.9294,2.929,2.9347,2.9391,2.9458,2.9508,2.9564,2.9648,2.9716,2.9761,2.9831,2.9872,2.9876,2.989,2.9888,2.9896,2.9802,2.9782,2.9886,2.9886,2.9886,2.9886,2.9886,2.9886,2.9145,2.9227,2.9245,2.9348,2.9382,2.9456,2.9489,2.9533,2.9574,2.9666,2.9722,2.9751,2.98,2.9874,2.9937,2.9949,2.9975,2.9991,3.0002,2.9914,2.9903,2.9892,2.9874,2.9996,2.9996,3.0091,3.0092,3.0093]},{"header":{"parameterUnit":"m.s-1","parameterCategory":1,"la1":30.2991,"la2":30.254,"lo1":-89.0895,"lo2":-89.0444,"dy":0.0017,"dx":0.0017,"nx":28,"ny":28,"refTime":"2025-07-06T21:00:00:Z","depth":0,"parameterNumber":3,"parameterNumberName":"V-component_of_WINDS"},"data":[0,0,0,0,0,0,0,0,0,0,0,0,0,0,0,0,0,0,0,0,0,0,0,0,0,0,0,0,0,0,0,0,0,0,0,0,0,0,0,0,0,0,0,0,0,0,0,0,0,0,0,0,0,0,0,0,0,0,0.5235,0.5234,0,0.5158,0.5157,0.5156,0.5108,0.5108,0.5108,0.5108,0.5028,0.5026,0.5025,0,0,0,0,0,0,0,0,0,0,0,0,0,0.5339,0.5338,0.5235,0.5234,0.5233,0.5158,0.5157,0.5156,0.5109,0.5108,0.5108,0.5108,0.5029,0.5027,0.5024,0,0,0,0,0,0,0,0,0,0,0,0,0,0.5281,0.5337,0.5235,0.5201,0.5197,0.5159,0.5157,0.5156,0.5109,0.5108,0.5108,0.5107,0.503,0.5027,0.5024,0.5015,0,0,0.5016,0.5014,0,0,0,0,0,0,0,0,0.5285,0.5278,0.5207,0.5203,0.5198,0.5143,0.5165,0.5109,0.5109,0.5142,0.5108,0.5107,0.5067,0.5061,0.5047,0.5011,0.5008,0.5015,0.5014,0.5012,0.5012,0,0,0,0,0,0,0,0.5289,0.5281,0.5205,0.5206,0.5201,0.5188,0.5179,0.5154,0.5107,0.5139,0.5135,0.5127,0.5064,0.505,0.5045,0.5006,0.5015,0.5013,0.5011,0.501,0.4957,0.4957,0,0,0,0,0,0,0.5299,0.5284,0.5207,0.5202,0.5242,0.5187,0.5177,0.5161,0.5108,0.5099,0.5127,0.5125,0.5055,0.5048,0.5042,0.5026,0.5012,0.501,0.5008,0.4956,0.4957,0.4957,0,0,0,0,0,0,0.5301,0.5292,0.521,0.5242,0.5231,0.5185,0.5168,0.516,0.5145,0.5099,0.509,0.5121,0.5054,0.5046,0.5021,0.5023,0.5009,0.5006,0.4956,0.4956,0.4957,0.4995,0,0,0,0,0,0,0.5304,0.5293,0.529,0.5243,0.5229,0.5192,0.5168,0.5158,0.5141,0.5137,0.5091,0.5083,0.5053,0.5026,0.5019,0.5019,0.5004,0.4956,0.4956,0.4957,0.4994,0.4997,0.5,0,0,0,0,0,0.5308,0.5304,0.529,0.5281,0.5224,0.5192,0.5184,0.5151,0.5141,0.5136,0.5106,0.5084,0.5024,0.5024,0.5015,0.5014,0.4955,0.4956,0.4957,0.4992,0.4996,0.5,0,0,0,0,0,0,0.5353,0.5297,0.5281,0.5262,0.5232,0.5184,0.5178,0.5156,0.5129,0.5126,0.5085,0.5075,0.5055,0.5032,0.5033,0.5001,0.4987,0.4986,0.5017,0.502,0.5023,0.5029,0.5001,0,0,0,0,0,0.536,0.5339,0.5292,0.5279,0.5265,0.5224,0.5209,0.5185,0.5153,0.514,0.5108,0.5077,0.5051,0.5034,0.5008,0.499,0.4979,0.4985,0.4988,0.4991,0.499,0.4978,0.498,0.4959,0.4959,0.4959,0,0,0.5376,0.5343,0.5332,0.5287,0.5261,0.524,0.5214,0.5192,0.5175,0.5136,0.5111,0.5087,0.5049,0.5028,0.5017,0.5008,0.4994,0.4992,0.4994,0.4992,0.4979,0.4981,0.4983,0.4959,0.4959,0.4959,0,0,0.5392,0.5366,0.5352,0.5326,0.5287,0.526,0.5257,0.5211,0.5194,0.5168,0.5137,0.5117,0.5073,0.5047,0.5028,0.5034,0.5012,0.5026,0.5042,0.503,0.5032,0.5033,0.5034,0.5035,0.5026,0.5026,0.5026,0,0.5417,0.5383,0.5347,0.5327,0.5308,0.5271,0.5256,0.5233,0.5187,0.5175,0.5166,0.5109,0.5081,0.5052,0.5054,0.504,0.5034,0.5031,0.5035,0.5035,0.5036,0.5036,0.5037,0.5028,0.5027,0.5027,0.5027,0,0.5414,0.5391,0.5384,0.5341,0.5321,0.5304,0.5264,0.5248,0.5226,0.5199,0.5172,0.5138,0.5103,0.5094,0.5073,0.5062,0.5058,0.5042,0.5027,0.5041,0.504,0.504,0.503,0.503,0.5029,0.5029,0,0,0.5457,0.5394,0.5392,0.5371,0.5325,0.5306,0.5286,0.5252,0.5238,0.5208,0.519,0.5153,0.5138,0.5116,0.5091,0.5081,0.5086,0.5066,0.5065,0.5071,0.5071,0.5083,0.5084,0.5072,0.5071,0.5071,0.5074,0,0.5467,0.543,0.5397,0.5372,0.5349,0.5313,0.5296,0.5265,0.524,0.5216,0.5188,0.5162,0.5144,0.5131,0.5119,0.5088,0.5086,0.5088,0.5053,0.5053,0.5064,0.5083,0.5096,0.51,0.5074,0.5073,0.5073,0,0.5473,0.5444,0.5417,0.5371,0.5361,0.5346,0.5311,0.5289,0.5253,0.5235,0.5211,0.5184,0.5161,0.5148,0.5114,0.5116,0.51,0.5083,0.5082,0.5077,0.5064,0.5079,0.5101,0.5101,0.5073,0.5073,0.5073,0,0.5506,0.546,0.5437,0.5421,0.5368,0.5358,0.5335,0.5299,0.528,0.5249,0.5236,0.5204,0.5185,0.516,0.5125,0.5119,0.5095,0.5079,0.5078,0.5079,0.5075,0.5075,0.5094,0.5065,0.5065,0.5065,0.5065,0,0.552,0.5505,0.5451,0.5438,0.5419,0.538,0.5362,0.5336,0.5304,0.5284,0.5251,0.5232,0.5187,0.5163,0.5136,0.5111,0.5104,0.5088,0.508,0.509,0.5092,0.5079,0.5078,0.5065,0.5065,0.5065,0.5065,0,0.5554,0.5518,0.5491,0.5442,0.543,0.5418,0.5376,0.5361,0.5333,0.5307,0.5299,0.5255,0.5225,0.5187,0.5145,0.5126,0.5105,0.5094,0.5117,0.5113,0.5114,0.5114,0.5124,0.5123,0.5096,0.5096,0.5096,0,0.5565,0.5552,0.5502,0.5486,0.5465,0.544,0.542,0.5381,0.5362,0.5319,0.5308,0.5276,0.5247,0.52,0.5164,0.5131,0.5119,0.5125,0.5114,0.5124,0.5118,0.512,0.5118,0.5128,0.5128,0.5129,0.5129,0,0.5588,0.557,0.5544,0.551,0.5488,0.5459,0.543,0.5418,0.5373,0.5353,0.5321,0.5299,0.5256,0.5223,0.5186,0.5162,0.5137,0.5133,0.5131,0.5141,0.5154,0.5146,0.5124,0.5133,0.5132,0.5132,0.5132,0.5132,0.561,0.5597,0.5559,0.553,0.5503,0.5476,0.5459,0.5428,0.5401,0.5363,0.5341,0.531,0.5273,0.522,0.5197,0.5171,0.5163,0.516,0.5159,0.5159,0.5162,0.5158,0.5164,0.5164,0.5164,0.5164,0.5164,0,0.5631,0.5605,0.5578,0.5537,0.5514,0.5493,0.5459,0.5441,0.5414,0.5381,0.5354,0.5317,0.5285,0.5246,0.5211,0.5198,0.5186,0.5191,0.5191,0.5185,0.5172,0.5177,0.5201,0.5201,0.5201,0.5201,0.5201,0.5201,0.5639,0.5614,0.5592,0.5554,0.5527,0.5497,0.5479,0.5453,0.5427,0.5387,0.5361,0.5335,0.53,0.5262,0.5231,0.522,0.5209,0.5216,0.5202,0.519,0.5187,0.5184,0.5188,0.5214,0.5214,0.5218,0.5218,0.5218]}]]